The Dalles, WA

9:33 PM PDT on October 19, 2017 (GMT -0700)
Columbia Gorge Regional-The Dalles

Weather History for KDLS - July, 2013

Change the Weather History Date:

Thursday, July 4, 2013

  Actual Average Record
Temperature  
Mean Temperature 73 °F -  
Max Temperature 84 °F 84 °F 104 °F (1975)
Min Temperature 64 °F 58 °F 48 °F (2012)
Cooling Degree Days 8    
Growing Degree Days 23 (Base 50)    
Moisture  
Dew Point 47 °F    
Average Humidity 41    
Maximum Humidity 54    
Minimum Humidity 28    
Precipitation  
Precipitation 0.00 in - - ()
Sea Level Pressure  
Sea Level Pressure 29.93 in    
Wind  
Wind Speed 19 mph (NW)    
Max Wind Speed 31 mph    
Max Gust Speed 40 mph    
Visibility 10 miles    
Events      
Averages and records for this station are not official NWS values.
T = Trace of Precipitation, MM = Missing Value Source: NWS Daily Summary

Daily Weather History Graph

Daily Weather History Graph

Search for Another Location

Airport or City:

Trip Planner

Search our weather history database for the weather conditions in past years. The results will help you decide how hot, cold, wet, or windy it might be!

Date:

Astronomy

Jul. 04, 2013 Rise Set
Actual Time 5:21 AM PDT 8:56 PM PDT
Civil Twilight 4:43 AM PDT 9:34 PM PDT
Nautical Twilight 3:53 AM PDT 10:24 PM PDT
Astronomical Twilight 2:47 AM PDT 11:30 PM PDT
Moon 2:46 AM PDT (7/4) 6:02 PM PDT (7/4)
Length of Visible Light 16h 50m
Length of Day
15h 35m
Waning Crescent, 11% of the Moon is Illuminated
Jul 4
Waning Crescent
Jul 8
New
Jul 15
First Quarter
Jul 22
Full
Jul 29
Last Quarter

Hourly Weather History & Observations

Time (PDT) Temp. Dew Point Humidity Pressure Visibility Wind Dir Wind Speed Gust Speed Precip Events Conditions
12:53 AM 70.0 °F 50.0 °F 49% 29.96 in 10.0 mi NW 13.8 mph - N/A   Clear
1:53 AM 68.0 °F 50.0 °F 52% 29.96 in 10.0 mi NW 17.3 mph 21.9 mph N/A   Clear
2:53 AM 66.9 °F 48.0 °F 51% 29.96 in 10.0 mi WNW 13.8 mph - N/A   Clear
3:53 AM 64.9 °F 46.9 °F 52% 29.96 in 10.0 mi NW 16.1 mph - N/A   Clear
4:53 AM 64.0 °F 46.9 °F 54% 29.96 in 10.0 mi NW 19.6 mph 25.3 mph N/A   Clear
5:53 AM 64.0 °F 44.1 °F 48% 29.96 in 10.0 mi NW 20.7 mph - N/A   Clear
6:53 AM 64.0 °F 45.0 °F 50% 29.97 in 10.0 mi NW 20.7 mph 35.7 mph N/A   Clear
7:53 AM 66.0 °F 44.1 °F 45% 29.98 in 10.0 mi NNW 18.4 mph 26.5 mph N/A   Clear
8:53 AM 70.0 °F 45.0 °F 41% 29.98 in 10.0 mi NW 20.7 mph 31.1 mph N/A   Clear
9:53 AM 70.0 °F 46.0 °F 42% 29.98 in 10.0 mi NNW 16.1 mph 26.5 mph N/A   Clear
10:53 AM 73.9 °F 45.0 °F 35% 29.96 in 10.0 mi NNW 21.9 mph 29.9 mph N/A   Clear
11:53 AM 79.0 °F 46.0 °F 31% 29.94 in 10.0 mi NW 21.9 mph 31.1 mph N/A   Clear
12:11 PM 77.0 °F 46.4 °F 34% 29.94 in 1.8 mi NNW 27.6 mph 33.4 mph N/A   Haze
12:25 PM 77.0 °F 46.4 °F 34% 29.94 in 10.0 mi NW 27.6 mph 36.8 mph N/A   Clear
12:53 PM 78.1 °F 46.9 °F 33% 29.94 in 10.0 mi NW 26.5 mph 34.5 mph N/A   Clear
1:53 PM 80.1 °F 48.0 °F 32% 29.94 in 10.0 mi NNW 23.0 mph 28.8 mph N/A   Clear
2:53 PM 82.9 °F 46.9 °F 28% 29.91 in 10.0 mi WNW 24.2 mph 36.8 mph N/A   Clear
3:53 PM 82.9 °F 48.0 °F 29% 29.89 in 10.0 mi WNW 21.9 mph 35.7 mph N/A   Clear
4:53 PM 82.0 °F 48.9 °F 31% 29.87 in 10.0 mi WNW 26.5 mph 35.7 mph N/A   Clear
5:53 PM 81.0 °F 48.0 °F 31% 29.86 in 10.0 mi WNW 31.1 mph 40.3 mph N/A   Clear
6:53 PM 79.0 °F 48.9 °F 35% 29.86 in 10.0 mi West 23.0 mph 31.1 mph N/A   Clear
7:53 PM 75.0 °F 50.0 °F 41% 29.87 in 10.0 mi WNW 24.2 mph 32.2 mph N/A   Clear
8:53 PM 72.0 °F 48.9 °F 44% 29.88 in 10.0 mi WNW 21.9 mph 34.5 mph N/A   Clear
9:53 PM 69.1 °F 48.9 °F 49% 29.91 in 10.0 mi WNW 18.4 mph 34.5 mph N/A   Clear
10:53 PM 68.0 °F 48.0 °F 49% 29.92 in 10.0 mi Variable 6.9 mph 31.1 mph N/A   Clear
11:53 PM 66.0 °F 48.0 °F 52% 29.91 in 10.0 mi WNW 13.8 mph 26.5 mph N/A   Clear